This is the latest recevied weather packets stored in our database for station/object WV8MT. If no packets are shown the sender has not sent any weather packets the latest 10 day(s).
| Time | Temp. | Humidity | Pressure | Rain* | Wind** | Luminosity | Snow |
|---|---|---|---|---|---|---|---|
| 1778003429 | 25.56° C | 38% | 1015.9 hPa | 0 mm | - | - | - |
| 1778001027 | 25° C | 40% | 1016.2 hPa | 0 mm | - | - | - |
| 1777999221 | 25° C | 41% | 1016.4 hPa | 0 mm | - | - | - |
| 1777987825 | 21.11° C | 56% | 1017.5 hPa | 0 mm | - | - | - |
| 1777983618 | 16.11° C | 74% | 1018.3 hPa | 0 mm | - | - | - |
| 1777982427 | 12.22° C | 89% | 1018.5 hPa | 0 mm | - | - | - |
| 1777981830 | 10° C | 95% | 1018.5 hPa | 0 mm | - | - | - |
| 1777981236 | 8.89° C | 98% | 1018.4 hPa | 0 mm | - | - | - |
| 1777980620 | 8.33° C | 99% | 1018.3 hPa | 0 mm | - | - | - |
| 1777978820 | 8.33° C | 98% | 1017.8 hPa | 0 mm | - | - | - |
| 1777977616 | 9.44° C | 94% | 1017.5 hPa | 0 mm | - | - | - |
| 1777977026 | 10.56° C | 91% | 1017.6 hPa | 0 mm | - | - | - |
| 1777975220 | 10.56° C | 92% | 1017.3 hPa | 0 mm | - | - | - |
| 1777972820 | 9.44° C | 97% | 1017.3 hPa | 0 mm | - | - | - |
| 1777971030 | 7.22° C | 99% | 1017.3 hPa | 0 mm | - | - | - |
| 1777970421 | 7.22° C | 99% | 1017.3 hPa | 0 mm | - | - | - |
| 1777968649 | 7.22° C | 99% | 1017 hPa | 0 mm | - | - | - |
| 1777963229 | 7.78° C | 99% | 1016.6 hPa | 0 mm | - | - | - |
| 1777961422 | 7.78° C | 99% | 1016.4 hPa | 0 mm | - | - | - |
| 1777959618 | 8.89° C | 99% | 1016.6 hPa | 0 mm | - | - | - |
| 1777956618 | 10° C | 96% | 1016.4 hPa | 0 mm | - | - | - |
| 1777953046 | 9.44° C | 97% | 1016.2 hPa | 0 mm | - | - | - |
| 1777950643 | 10° C | 96% | 1016.4 hPa | 0 mm | - | - | - |
| 1777947029 | 12.22° C | 87% | 1016.7 hPa | 0 mm | - | - | - |
| 1777945223 | 13.33° C | 83% | 1016.5 hPa | 0 mm | - | - | - |
* Rain latest hour (hover to see other rain measurements)
** Current wind speed in m/s (hover to see current wind gust speed)